TimeCST,TemperatureF,Dew PointF,Humidity,Sea Level PressureIn,VisibilityMPH,Wind Direction,Wind SpeedMPH,Gust SpeedMPH,PrecipitationIn,Events,Conditions,WindDirDegrees,DateUTC
12:53 AM,28.9,28.9,100,30.32,10.0,Calm,Calm,-,N/A,,Clear,0,2013-01-06 06:53:00
1:53 AM,27.0,27.0,100,30.32,10.0,Calm,Calm,-,N/A,,Clear,0,2013-01-06 07:53:00
2:53 AM,37.0,28.9,73,30.32,10.0,NW,11.5,-,N/A,,Clear,320,2013-01-06 08:53:00
3:53 AM,34.0,28.0,79,30.33,10.0,NNW,4.6,-,N/A,,Clear,330,2013-01-06 09:53:00
4:53 AM,33.1,27.0,78,30.34,10.0,NNW,6.9,-,N/A,,Clear,330,2013-01-06 10:53:00
5:53 AM,32.0,25.0,75,30.36,10.0,NNW,5.8,-,N/A,,Clear,330,2013-01-06 11:53:00
6:53 AM,32.0,25.0,75,30.38,10.0,NW,6.9,-,N/A,,Clear,310,2013-01-06 12:53:00
7:53 AM,28.9,24.1,82,30.42,10.0,WNW,4.6,-,N/A,,Clear,290,2013-01-06 13:53:00
8:53 AM,35.1,27.0,72,30.43,10.0,NW,5.8,-,N/A,,Clear,320,2013-01-06 14:53:00
10:53 AM,46.0,27.0,47,30.45,10.0,North,8.1,-,N/A,,Clear,360,2013-01-06 16:53:00
11:53 AM,48.9,28.0,44,30.43,10.0,North,8.1,-,N/A,,Clear,360,2013-01-06 17:53:00
12:53 PM,53.1,25.0,34,30.39,10.0,North,8.1,-,N/A,,Clear,360,2013-01-06 18:53:00
1:53 PM,55.0,24.1,30,30.37,10.0,North,6.9,-,N/A,,Clear,350,2013-01-06 19:53:00
2:53 PM,55.9,24.1,29,30.35,10.0,North,10.4,-,N/A,,Clear,10,2013-01-06 20:53:00
3:53 PM,55.9,23.0,28,30.35,10.0,North,8.1,16.1,N/A,,Clear,10,2013-01-06 21:53:00
4:53 PM,54.0,21.9,29,30.34,10.0,NNE,8.1,-,N/A,,Clear,20,2013-01-06 22:53:00
5:53 PM,48.0,23.0,37,30.34,10.0,NNE,4.6,-,N/A,,Clear,30,2013-01-06 23:53:00
6:53 PM,37.0,24.1,59,30.36,10.0,Calm,Calm,-,N/A,,Clear,0,2013-01-07 00:53:00
7:53 PM,33.1,24.1,70,30.38,10.0,Calm,Calm,-,N/A,,Clear,0,2013-01-07 01:53:00
8:53 PM,33.1,25.0,72,30.38,10.0,Calm,Calm,-,N/A,,Clear,0,2013-01-07 02:53:00
9:53 PM,30.9,25.0,79,30.38,10.0,Calm,Calm,-,N/A,,Clear,0,2013-01-07 03:53:00
10:53 PM,28.9,24.1,82,30.38,10.0,Calm,Calm,-,N/A,,Clear,0,2013-01-07 04:53:00
11:53 PM,27.0,23.0,85,30.37,10.0,Calm,Calm,-,N/A,,Clear,0,2013-01-07 05:53:00